Regional Weather Roundup
Issued by NWS State College, PA

Home | Current Version | Previous Version | Text Only | Print | Product List | Glossary Off
Versions: 1 2 3 4 5 6 7 8 9 10 11 12 13 14 15 16 17 18 19 20 21 22 23 24 25 26 27 28 29 30 31 32 33 34 35 36 37 38 39 40 41 42 43 44 45 46 47 48 49 50

000
ASUS41 KCTP 301703
RWRCTP

REGIONAL WEATHER ROUNDUP
NATIONAL WEATHER SERVICE STATE COLLEGE PA
100 PM EDT TUE SEP 30 2014

Note: "fair" indicates few or no clouds below 12,000 feet with no
significant weather and/or obstructions to visibility.

* = STATION THAT DOES NOT REPORT PRECIPITATION /E.G. RAIN...SNOW...ETC/
    THUNDER OR FOG.

PAZ002>004-007>009-013>016-020>023-029>032-301800-
WESTERN PENNSYLVANIA

CITY           SKY/WX    TMP DP  RH WIND       PRES   REMARKS
ERIE           CLOUDY    62  58  86 SE6       29.90F
MEADVILLE      LGT RAIN  59  55  87 VRB3      29.92F FOG
FRANKLIN*      CLOUDY    57  54  88 W5        29.96S
NEW CASTLE       N/A     59  59 100 E3        29.93F
BEAVER COUNTY  RAIN      59  57  94 CALM      29.94S
BUTLER*        PTSUNNY   64  54  68 N5        29.96R
PITTSBURGH INT LGT RAIN  66  53  63 NW16      29.94R
PITTSBURGH     MOSUNNY   72  53  51 NW9G21    29.92R
INDIANA*       MOSUNNY   77  55  47 NW9       29.94S
LATROBE        MOSUNNY   75  57  53 W10       29.91F
WASHINGTON CO* PTSUNNY   72  55  56 NW9G17    29.95S
$$

PAZ004>006-010>012-017>019-024>028-033>037-041-042-045-046-049>053-301800-
CENTRAL PENNSYLVANIA

CITY           SKY/WX    TMP DP  RH WIND       PRES   REMARKS
BRADFORD       PTSUNNY   68  51  54 NW8       29.93S
DUBOIS         PTSUNNY   72  56  57 SW5       29.90F
CLEARFIELD     SUNNY     74  55  51 S6        29.91F
JOHNSTOWN      MOSUNNY   72  52  49 S6        29.93F
ALTOONA        CLOUDY    74  57  55 E6        29.91F
STATE COLLEGE  MOSUNNY   72  61  68 CALM      29.92S
WILLIAMSPORT   CLOUDY    68  59  73 VRB3      29.91S
SELINSGROVE    PTSUNNY   69  62  78 CALM      29.93S HAZE
FT INDIANTOWN  MOSUNNY   72  65  77 N2        29.92F
CAPITAL CITY   PTSUNNY   70  60  70 NE3       29.92F
HARRISBURG     PTSUNNY   71  61  70 CALM      29.91F
YORK           MOSUNNY   74  61  63 CALM      29.92F
$$

PAZ038>040-043-044-047-048-054-055-060>062-067>071-301800-
EASTERN PENNSYLVANIA

CITY           SKY/WX    TMP DP  RH WIND       PRES   REMARKS
SCRANTON       MOSUNNY   73  57  57 W3        29.92F
MOUNT POCONO   PTSUNNY   67  54  63 SE12      29.97S
ALLENTOWN      SUNNY     75  56  51 E3        29.93F
QUAKERTOWN*    PTSUNNY   73  55  53 SE6       29.94F
READING        PTSUNNY   75  56  51 SE8       29.91F
LANCASTER      MOSUNNY   75  57  53 SE7       29.92F
COATESVILLE    SUNNY     72  57  60 SE6       29.94F
POTTSTOWN      MOSUNNY   76  55  48 VRB3      29.94F
BLUE BELL      SUNNY     77  52  41 CALM      29.92F
DOYLESTOWN     SUNNY     74  52  46 CALM      29.93F
WILLOW GROVE   NOT AVBL
NORTH PHILA    MOSUNNY   78  52  40 MISG      29.94F
PHILADELPHIA   MOSUNNY   77  55  46 SE6       29.93F
$$



USA.gov is the U.S. government's official web portal to all federal, state and local government web resources and services.